Prescott, AZ

2:00 AM MST on October 21, 2019 (GMT -0700)
Love

Weather History for KPRC - August, 2019

Change the Weather History Date:

Sunday, August 11, 2019

  Actual Average Record
Temperature  
Mean Temperature 75 °F 74 °F  
Max Temperature 87 °F 87 °F 99 °F (1980)
Min Temperature 63 °F 61 °F 49 °F (1949)
Degree Days  
Heating Degree Days 0    
Month to date heating degree days 0  
Since 1 July heating degree days 0  
Cooling Degree Days 10    
Month to date cooling degree days 138  
Year to date cooling degree days 706  
Growing Degree Days 25 (Base 50)    
Moisture  
Dew Point 50 °F    
Average Humidity 46    
Maximum Humidity 84    
Minimum Humidity 21    
Precipitation  
Precipitation 0.00 in 0.10 in 1.15 in (1972)
Month to date precipitation 0.30 1.00  
Year to date precipitation 8.11 8.04  
Sea Level Pressure  
Sea Level Pressure 29.90 in    
Wind  
Wind Speed 8 mph (SSW)    
Max Wind Speed 18 mph    
Max Gust Speed 27 mph    
Visibility 10 miles    
Events      
T = Trace of Precipitation, MM = Missing Value Source: NWS Daily Summary

Daily Weather History Graph

Daily Weather History Graph

Search for Another Location

Airport or City:

Astronomy

Aug. 11, 2019 Rise Set
Actual Time 5:47 AM MST 7:22 PM MST
Civil Twilight 5:20 AM MST 7:48 PM MST
Nautical Twilight 4:47 AM MST 8:21 PM MST
Astronomical Twilight 4:13 AM MST 8:55 PM MST
Moon 4:58 PM MST (8/11) 2:15 AM MST (8/11)
Length of Visible Light 14h 28m
Length of Day
13h 34m
Waxing Gibbous, 87% of the Moon is Illuminated
Aug 11
Waxing Gibbous
Aug 15
Full
Aug 23
Last Quarter
Aug 30
New
Sep 5
First Quarter

Hourly Weather History & Observations

Time (MST) Temp. Dew Point Humidity Pressure Visibility Wind Dir Wind Speed Gust Speed Precip Events Conditions
12:53 AM 72.0 °F 57.9 °F 61% 29.86 in 10.0 mi South 8.1 mph - N/A   Clear
1:53 AM 68.0 °F 59.0 °F 73% 29.87 in 10.0 mi SE 6.9 mph - N/A   Clear
2:53 AM 68.0 °F 59.0 °F 73% 29.87 in 10.0 mi SSE 8.1 mph - N/A   Clear
3:53 AM 64.9 °F 59.0 °F 81% 29.89 in 10.0 mi SSE 3.5 mph - N/A   Mostly Cloudy
4:53 AM 64.9 °F 57.9 °F 78% 29.91 in 10.0 mi Calm Calm - N/A   Clear
5:53 AM 63.0 °F 57.0 °F 81% 29.93 in 10.0 mi SSE 6.9 mph - N/A   Clear
6:53 AM 66.9 °F 57.0 °F 70% 29.93 in 10.0 mi ESE 3.5 mph - N/A   Clear
7:53 AM 70.0 °F 59.0 °F 68% 29.95 in 10.0 mi SE 9.2 mph - N/A   Clear
8:53 AM 75.0 °F 57.9 °F 55% 29.94 in 10.0 mi SSE 8.1 mph - N/A   Partly Cloudy
9:53 AM 79.0 °F 53.1 °F 40% 29.95 in 10.0 mi WSW 10.4 mph 19.6 mph N/A   Partly Cloudy
10:53 AM 81.0 °F 50.0 °F 34% 29.94 in 10.0 mi Variable 6.9 mph - N/A   Partly Cloudy
11:53 AM 82.9 °F 48.9 °F 31% 29.92 in 10.0 mi SSW 10.4 mph - N/A   Scattered Clouds
12:53 PM 84.9 °F 45.0 °F 25% 29.90 in 10.0 mi Variable 5.8 mph - N/A   Scattered Clouds
1:53 PM 86.0 °F 44.1 °F 23% 29.89 in 10.0 mi SW 9.2 mph 17.3 mph N/A   Clear
2:53 PM 84.9 °F 41.0 °F 21% 29.87 in 10.0 mi Variable 5.8 mph 18.4 mph N/A   Partly Cloudy
3:53 PM 87.1 °F 43.0 °F 21% 29.87 in 10.0 mi SW 11.5 mph 27.6 mph N/A   Scattered Clouds
4:53 PM 86.0 °F 41.0 °F 20% 29.86 in 10.0 mi WSW 17.3 mph 24.2 mph N/A   Clear
5:53 PM 84.0 °F 43.0 °F 24% 29.87 in 10.0 mi SSW 12.7 mph 18.4 mph N/A   Clear
6:53 PM 82.0 °F 42.1 °F 24% 29.88 in 10.0 mi WSW 9.2 mph - N/A   Clear
7:53 PM 77.0 °F 45.0 °F 32% 29.90 in 10.0 mi SW 5.8 mph - N/A   Clear
8:53 PM 75.0 °F 46.0 °F 36% 29.91 in 10.0 mi SSW 8.1 mph - N/A   Clear
9:53 PM 73.0 °F 46.9 °F 39% 29.91 in 10.0 mi SSW 8.1 mph - N/A   Clear
10:53 PM 71.1 °F 48.9 °F 45% 29.91 in 10.0 mi SSW 6.9 mph - N/A   Clear
11:53 PM 71.1 °F 48.9 °F 45% 29.91 in 10.0 mi SSW 6.9 mph - N/A   Clear